Wind_Speed
13 14 15 14 14 14 15 14 14 14 17 16 17 19 21 24 27 30 31 30 32 34 36 42 47 51 53 54 55 59 60 61 62 63 62 62 61 63 52 26 18 16 12 13
13 15 16 15 15 16 16 14 13 14 15 15 16 19 21 25 27 29 30 29 32 33 37 42 46 50 52 53 56 58 60 60 61 62 62 62 62 62 58 33 18 17 15 12
15 16 17 16 17 16 16 14 13 14 13 14 16 18 21 24 26 28 29 29 31 33 37 42 46 49 51 54 56 57 59 60 60 61 62 61 62 62 63 39 20 16 15 14
13 15 16 14 18 17 15 13 13 13 14 13 16 18 21 24 25 26 28 28 30 33 37 41 45 48 51 53 55 56 57 58 58 60 61 62 63 64 65 45 23 14 13 14
15 15 15 17 19 18 13 12 13 14 13 12 16 17 21 23 23 25 26 28 29 33 37 41 44 47 50 53 54 56 57 57 57 58 60 62 62 64 65 54 31 15 12 11
14 15 16 17 22 16 12 11 13 14 11 13 16 17 20 22 22 24 25 27 29 33 37 41 43 46 50 51 53 55 55 56 57 58 59 61 61 64 66 62 40 21 11 10
16 15 14 20 22 16 13 13 14 12 12 14 16 18 20 21 22 24 24 27 29 33 37 40 43 45 49 51 52 54 55 56 57 57 58 59 62 64 66 66 49 32 19 12
17 15 15 19 22 15 15 13 14 11 13 15 16 19 20 21 22 23 24 26 29 32 36 40 42 44 47 50 52 54 55 55 56 56 56 57 60 62 65 67 56 39 27 21
15 14 17 17 18 18 15 15 14 10 14 15 17 20 21 22 22 23 24 26 29 32 35 39 42 44 46 48 51 53 54 55 55 56 56 56 57 59 63 66 62 44 30 23
17 17 17 16 17 18 16 16 12 12 15 15 17 20 23 23 22 23 24 26 28 32 35 38 41 43 45 47 49 51 53 55 55 54 55 56 56 56 58 62 64 51 35 25
14 14 15 15 16 19 17 16 12 14 15 16 18 21 23 23 22 24 25 26 28 32 35 38 41 41 43 44 48 51 52 54 55 54 54 55 55 56 56 59 62 59 42 27
11 12 11 14 15 17 18 15 13 15 15 16 18 22 22 21 22 26 26 28 30 32 34 37 39 39 41 43 46 50 52 52 54 55 54 54 55 56 57 57 61 62 52 37
12 12 9 13 15 18 18 15 15 16 15 16 20 23 23 21 22 26 28 29 30 32 34 37 37 38 39 42 45 48 50 53 53 53 54 54 53 54 55 57 58 61 60 45
12 10 10 12 17 19 18 15 15 17 16 17 21 24 24 22 23 27 28 30 31 32 34 36 36 36 38 40 45 47 49 52 53 53 53 53 53 52 52 54 56 59 61 56
11 11 15 14 14 18 19 15 16 17 16 18 21 23 24 23 25 28 29 30 31 31 33 36 35 35 37 39 43 46 49 51 52 54 53 52 52 52 52 52 53 55 59 60
10 9 12 14 18 21 20 17 16 17 16 19 22 24 24 24 27 28 29 30 30 31 32 35 33 33 36 38 42 45 48 51 52 52 53 51 51 51 51 51 51 51 54 57
11 11 16 16 20 24 24 19 17 18 17 18 23 25 25 26 28 29 30 31 30 30 32 34 32 33 35 37 41 44 47 49 51 52 51 51 50 50 50 50 49 50 51 53
14 16 17 22 23 24 22 23 20 19 18 17 22 26 27 29 30 30 31 32 31 30 31 33 32 33 35 37 39 43 46 49 51 51 51 50 50 49 49 49 49 49 49 50
15 16 18 23 25 27 25 24 21 20 19 17 21 25 29 31 31 32 33 33 32 30 31 32 32 33 35 37 39 41 45 47 50 50 51 50 49 49 48 48 48 48 48 48
17 17 17 20 24 28 27 22 21 21 21 20 22 24 29 31 32 32 32 32 31 29 30 31 33 34 35 36 38 40 43 46 48 50 50 50 49 48 48 48 47 47 47 47
15 16 17 18 20 21 22 22 22 21 21 24 26 27 28 28 29 31 33 33 32 30 30 31 33 35 35 36 38 40 43 46 46 48 49 49 49 49 47 46 47 46 46 46
13 14 15 19 20 18 20 23 23 23 23 24 26 28 30 30 30 31 32 33 33 32 31 30 33 35 36 37 38 41 43 45 46 47 48 47 47 48 47 46 46 46 45 45
14 15 15 13 15 18 19 23 24 25 27 28 29 30 30 31 31 30 30 31 32 32 31 32 34 36 38 39 40 42 43 45 46 47 47 46 46 47 46 46 45 45 44 43
14 13 11 11 12 15 19 22 25 27 29 30 31 30 30 30 31 31 31 31 33 34 34 35 36 37 39 40 41 43 44 44 46 47 47 45 45 46 46 46 46 45 44 43
13 11 10 10 12 14 17 20 24 28 30 30 30 31 32 32 32 31 31 30 31 32 33 35 37 38 39 39 41 43 44 45 46 47 48 47 45 45 46 45 45 44 44 43
14 13 13 15 15 17 18 19 21 23 27 29 30 31 32 33 33 33 32 32 32 32 33 34 35 36 38 39 41 43 44 46 47 48 48 47 46 45 45 46 45 45 44 43
19 18 17 18 18 18 18 19 21 22 22 24 26 29 30 32 33 34 33 33 33 33 34 35 35 36 37 39 41 42 44 45 47 48 47 47 45 45 45 46 45 45 44 43
Wind_Direction
246 249 251 258 269 275 281 285 295 304 311 321 325 326 335 339 341 339 338 339 335 338 345 349 351 352 353 354 353 354 355 355 356 357 355 356 357 359 358 340 330 330 312 303
251 251 255 260 270 274 279 278 291 298 308 318 323 329 335 335 339 338 339 337 335 341 352 350 351 352 354 355 355 355 356 357 357 357 357 357 356 358 2 351 333 334 327 311
253 255 262 261 266 270 277 280 291 297 308 318 323 329 333 333 336 336 338 335 337 349 352 350 351 352 356 356 356 356 357 358 358 358 358 358 357 359 3 357 339 334 331 323
251 256 263 256 259 268 270 280 291 296 305 318 323 329 330 333 334 336 337 335 345 351 351 349 351 353 357 357 358 358 359 359 358 359 359 0 359 0 2 1 350 331 332 326
252 255 263 253 258 261 265 280 286 292 303 320 321 325 324 331 332 335 334 340 347 349 348 348 351 354 357 359 359 360 360 360 359 1 1 2 0 1 2 5 0 344 336 331
252 256 260 253 256 262 263 273 280 286 308 318 313 320 324 329 331 332 339 343 345 344 346 347 351 356 359 360 1 1 1 0 1 2 3 3 3 1 4 6 4 359 342 341
256 263 262 257 257 259 264 274 280 286 313 312 313 320 325 327 330 334 341 341 342 344 345 348 351 358 360 0 3 3 2 2 2 4 4 4 5 4 4 7 6 4 360 348
263 266 259 255 256 263 260 272 279 296 311 310 316 320 326 328 332 337 338 337 340 342 344 348 352 359 0 1 3 4 5 4 4 5 5 6 6 6 5 7 7 3 359 355
269 263 265 265 257 254 257 270 280 300 305 314 321 323 323 329 335 333 332 335 337 340 344 348 354 360 1 2 3 4 5 4 6 5 6 8 7 7 7 7 8 5 359 353
264 269 273 274 259 250 252 265 282 295 301 317 321 322 324 330 328 323 329 331 335 339 344 348 357 360 2 2 3 5 5 6 6 7 6 8 9 10 10 8 9 8 2 354
277 281 272 267 250 246 247 260 277 290 299 316 321 321 324 325 320 318 324 327 334 339 343 349 356 359 2 1 3 3 5 6 6 6 8 9 9 9 12 12 11 11 8 360
272 305 294 278 263 246 246 260 275 288 299 311 315 315 320 320 316 314 320 325 332 337 342 349 355 358 1 0 2 2 2 3 5 5 6 9 8 9 10 13 14 12 12 6
260 293 286 265 254 244 247 259 273 283 296 309 310 313 315 317 315 312 318 324 330 336 342 348 354 357 358 359 0 2 1 2 4 5 5 6 8 9 9 10 14 14 13 12
268 274 268 244 244 248 252 260 273 283 298 308 311 312 314 316 315 311 318 322 328 336 340 347 353 354 356 357 358 359 360 0 3 4 6 5 5 8 10 10 11 14 14 13
280 265 266 268 255 257 256 264 273 282 295 305 308 309 314 318 314 311 317 320 326 333 338 345 349 351 353 355 356 358 359 359 1 2 4 4 4 5 8 9 10 12 15 12
291 267 268 265 254 255 258 261 272 281 289 302 305 307 314 316 310 311 313 317 324 331 336 342 347 349 351 352 354 355 357 357 360 1 2 2 3 3 5 7 8 10 13 13
285 280 258 255 256 261 263 264 270 279 285 299 304 308 312 311 308 311 312 315 323 328 334 339 344 347 349 350 351 353 356 356 357 359 360 0 1 2 3 4 6 7 9 12
283 289 257 252 261 268 269 261 266 275 281 297 306 309 309 307 311 312 313 317 322 325 332 337 340 343 344 346 349 350 352 354 355 356 357 358 359 360 1 1 3 5 6 8
288 284 266 257 260 263 260 263 265 272 277 291 303 307 308 308 312 314 317 319 320 323 329 334 335 337 339 341 344 346 349 352 353 354 355 356 357 358 358 359 360 2 3 5
289 288 276 268 266 267 260 261 265 271 279 284 291 299 307 312 312 314 316 317 320 323 328 329 329 331 333 335 339 342 344 348 351 351 352 353 354 355 356 357 357 358 1 2
282 288 281 273 271 271 268 258 258 267 272 279 292 298 302 306 308 310 312 315 317 318 322 323 323 324 328 331 335 337 341 343 347 348 349 351 351 352 354 355 354 355 356 359
278 287 288 278 268 262 263 263 266 270 274 282 291 299 303 304 305 307 311 313 314 314 313 313 315 319 324 328 331 334 337 340 343 345 346 348 349 350 351 352 352 353 353 355
273 278 285 290 279 270 268 269 275 282 284 287 291 295 298 300 301 304 307 308 307 306 306 307 310 316 321 325 328 331 334 337 339 341 343 345 346 347 349 349 350 350 351 351
275 279 287 291 293 286 276 273 276 279 282 286 290 293 297 299 300 303 307 311 310 310 309 309 311 315 320 323 325 327 331 334 337 338 339 342 343 344 346 346 347 349 348 348
269 270 285 290 297 300 300 292 286 284 286 286 289 295 298 299 300 303 307 311 312 312 312 312 313 316 319 321 323 326 330 332 334 335 336 338 340 341 343 343 345 346 346 346
265 268 278 288 295 299 301 300 297 293 292 294 295 298 302 303 304 307 309 309 310 311 312 313 314 316 319 321 322 325 327 330 333 333 334 336 337 338 339 340 342 343 344 344
271 275 280 286 289 293 297 301 306 306 302 299 299 301 303 305 307 307 307 308 309 310 312 314 315 317 317 318 319 322 325 329 331 332 332 333 333 334 336 337 339 340 341 342
Height
5775 5775 5775 5776 5776 5776 5777 5776 5775 5773 5770 5769 5766 5762 5758 5753 5749 5743 5738 5732 5726 5721 5712 5703 5694 5684 5673 5662 5651 5637 5624 5610 5595 5582 5568 5553 5540 5528 5515 5507 5504 5501 5498 5497
5771 5772 5772 5773 5773 5773 5773 5773 5772 5770 5768 5766 5762 5758 5755 5751 5746 5741 5736 5730 5725 5718 5710 5701 5692 5682 5673 5662 5650 5637 5624 5611 5596 5582 5568 5554 5540 5528 5515 5505 5500 5498 5495 5494
5768 5768 5769 5770 5770 5770 5770 5769 5769 5766 5765 5762 5758 5756 5752 5748 5743 5739 5733 5729 5722 5714 5708 5699 5690 5681 5672 5661 5649 5637 5624 5611 5597 5584 5569 5556 5542 5528 5515 5504 5498 5496 5493 5491
5764 5765 5765 5767 5766 5767 5768 5766 5764 5762 5761 5759 5756 5753 5749 5746 5741 5736 5731 5726 5718 5712 5706 5698 5689 5680 5672 5661 5649 5637 5624 5611 5599 5585 5570 5557 5542 5528 5515 5503 5496 5493 5491 5489
5760 5762 5763 5763 5763 5764 5764 5763 5760 5759 5758 5756 5753 5750 5747 5743 5739 5734 5730 5723 5716 5710 5704 5696 5688 5680 5670 5660 5649 5636 5625 5613 5600 5587 5572 5558 5544 5530 5517 5503 5495 5491 5489 5488
5757 5757 5759 5759 5758 5760 5760 5759 5758 5756 5755 5753 5750 5747 5744 5740 5736 5731 5727 5720 5715 5709 5702 5695 5687 5679 5670 5660 5648 5637 5625 5614 5601 5588 5574 5560 5546 5532 5519 5505 5495 5489 5487 5485
5752 5753 5756 5754 5752 5755 5756 5758 5754 5752 5752 5749 5746 5744 5741 5737 5733 5729 5724 5718 5713 5706 5700 5694 5686 5678 5669 5659 5649 5637 5626 5614 5602 5590 5576 5563 5548 5534 5521 5507 5495 5488 5485 5483
5748 5750 5752 5749 5748 5751 5751 5751 5750 5749 5747 5746 5742 5740 5737 5734 5730 5726 5721 5716 5710 5705 5699 5692 5685 5677 5668 5658 5648 5637 5626 5614 5603 5591 5579 5566 5552 5539 5524 5511 5498 5489 5484 5482
5746 5747 5745 5745 5744 5746 5747 5746 5746 5745 5744 5742 5739 5736 5733 5730 5726 5722 5718 5713 5708 5703 5697 5690 5683 5675 5667 5658 5648 5638 5627 5615 5603 5592 5581 5569 5556 5543 5529 5515 5503 5493 5486 5483
5741 5742 5740 5739 5740 5742 5742 5742 5742 5741 5740 5738 5735 5732 5728 5726 5723 5719 5715 5711 5707 5701 5695 5689 5682 5674 5666 5657 5647 5637 5626 5615 5604 5593 5582 5571 5560 5549 5536 5522 5509 5497 5488 5483
5737 5736 5734 5735 5736 5736 5738 5738 5739 5737 5735 5733 5731 5728 5726 5724 5720 5716 5713 5708 5704 5698 5692 5686 5680 5673 5665 5656 5647 5636 5626 5616 5605 5593 5584 5572 5562 5551 5541 5529 5516 5502 5492 5486
5731 5730 5730 5730 5731 5732 5734 5734 5734 5733 5732 5730 5727 5725 5723 5720 5717 5713 5709 5705 5700 5696 5689 5684 5677 5670 5663 5655 5646 5636 5626 5616 5605 5594 5584 5574 5564 5553 5542 5532 5520 5507 5495 5486
5727 5726 5726 5726 5728 5728 5729 5730 5729 5729 5728 5726 5723 5722 5720 5716 5713 5709 5706 5702 5698 5693 5687 5681 5674 5668 5661 5653 5644 5635 5626 5616 5606 5595 5584 5574 5565 5555 5545 5534 5525 5512 5500 5489
5722 5723 5722 5722 5722 5723 5725 5726 5725 5724 5723 5722 5720 5717 5715 5712 5709 5705 5702 5698 5694 5689 5684 5678 5671 5665 5659 5651 5643 5634 5625 5616 5606 5596 5585 5575 5567 5557 5547 5537 5528 5518 5505 5494
5718 5718 5717 5717 5718 5719 5720 5720 5720 5720 5719 5717 5716 5714 5711 5708 5704 5700 5697 5694 5690 5685 5680 5674 5669 5663 5656 5649 5641 5633 5624 5615 5606 5596 5586 5577 5567 5558 5549 5539 5529 5520 5510 5498
5713 5713 5713 5713 5713 5713 5714 5715 5715 5715 5715 5714 5712 5710 5707 5703 5699 5695 5692 5689 5685 5681 5676 5671 5666 5660 5653 5647 5639 5632 5623 5614 5604 5595 5585 5577 5567 5558 5549 5541 5531 5522 5513 5503
5709 5708 5708 5708 5707 5706 5707 5708 5709 5710 5709 5708 5707 5704 5701 5697 5693 5690 5687 5683 5680 5677 5673 5668 5663 5657 5651 5644 5637 5629 5621 5612 5602 5593 5585 5576 5566 5557 5549 5541 5532 5524 5515 5506
5705 5704 5704 5703 5702 5701 5702 5702 5704 5704 5703 5702 5701 5699 5696 5691 5688 5685 5682 5679 5676 5672 5669 5664 5659 5653 5647 5641 5634 5626 5618 5610 5601 5592 5583 5575 5566 5556 5548 5540 5532 5524 5515 5507
5699 5698 5697 5697 5696 5695 5695 5697 5698 5698 5698 5696 5695 5693 5689 5686 5683 5680 5677 5674 5671 5668 5664 5660 5655 5649 5643 5637 5630 5623 5615 5607 5599 5590 5581 5573 5564 5555 5547 5538 5530 5523 5515 5507
5693 5692 5691 5690 5689 5689 5689 5691 5692 5692 5691 5690 5688 5686 5683 5681 5678 5674 5671 5668 5665 5662 5659 5654 5649 5644 5638 5632 5625 5618 5611 5603 5595 5587 5579 5571 5562 5553 5545 5537 5529 5521 5513 5506
5687 5686 5685 5684 5683 5684 5684 5686 5686 5686 5685 5684 5682 5679 5677 5674 5671 5668 5665 5662 5658 5655 5652 5648 5642 5637 5632 5626 5620 5614 5606 5599 5591 5583 5575 5567 5559 5551 5543 5534 5526 5518 5511 5503
5682 5681 5680 5678 5678 5678 5679 5680 5680 5679 5678 5676 5674 5672 5670 5667 5664 5661 5659 5656 5652 5648 5644 5640 5635 5630 5625 5620 5614 5607 5601 5594 5587 5579 5571 5563 5555 5548 5540 5531 5523 5515 5507 5500
5677 5676 5675 5673 5672 5672 5673 5674 5674 5673 5672 5670 5668 5665 5663 5659 5656 5653 5650 5648 5645 5641 5637 5633 5629 5624 5619 5614 5608 5602 5595 5588 5581 5574 5566 5558 5551 5543 5535 5528 5520 5512 5504 5496
5671 5671 5670 5669 5668 5668 5667 5666 5665 5664 5663 5662 5660 5658 5655 5652 5649 5647 5644 5641 5638 5634 5631 5627 5622 5617 5612 5607 5602 5595 5589 5583 5575 5568 5560 5553 5545 5538 5530 5523 5516 5508 5500 5493
5665 5665 5665 5665 5664 5663 5662 5661 5659 5658 5657 5655 5653 5651 5648 5645 5642 5639 5636 5633 5630 5626 5623 5619 5614 5610 5605 5600 5594 5589 5583 5576 5569 5562 5554 5547 5539 5532 5525 5518 5511 5503 5495 5488
5660 5660 5659 5659 5659 5658 5657 5656 5654 5651 5649 5647 5645 5643 5640 5638 5634 5631 5628 5625 5622 5618 5615 5611 5606 5601 5596 5592 5587 5581 5576 5569 5562 5555 5548 5541 5533 5526 5519 5512 5504 5497 5490 5483
5654 5654 5653 5653 5653 5651 5651 5650 5648 5646 5643 5640 5638 5635 5633 5630 5627 5624 5621 5618 5614 5610 5606 5602 5598 5593 5588 5583 5578 5573 5567 5561 5554 5548 5541 5533 5526 5519 5512 5505 5498 5490 5483 5476